This is the latest recevied weather packets stored in our database for station/object W4FXD. If no packets are shown the sender has not sent any weather packets the latest 10 day(s).
| Time | Temp. | Humidity | Pressure | Rain* | Wind** | Luminosity | Snow |
|---|---|---|---|---|---|---|---|
| 1778072650 | 16.67° C | 99% | 1011.9 hPa | 4.32 mm | - | 32 W/m² | - |
| 1778072348 | 16.67° C | 99% | 1012.1 hPa | 7.11 mm | - | 21 W/m² | - |
| 1778072046 | 16.67° C | 99% | 1012.2 hPa | 7.11 mm | - | 12 W/m² | - |
| 1778071744 | 16.67° C | 99% | 1012.4 hPa | 6.6 mm | - | 7 W/m² | - |
| 1778071441 | 16.67° C | 99% | 1012.4 hPa | 6.6 mm | - | 7 W/m² | - |
| 1778071139 | 16.67° C | 99% | 1012.2 hPa | 4.32 mm | - | 8 W/m² | - |
| 1778070837 | 16.67° C | 99% | 1012 hPa | 1.27 mm | - | 12 W/m² | - |
| 1778070534 | 16.67° C | 99% | 1012.1 hPa | 1.27 mm | - | 12 W/m² | - |
| 1778070231 | 16.67° C | 99% | 1012 hPa | 3.05 mm | - | 15 W/m² | - |
| 1778069929 | 17.22° C | 98% | 1011.8 hPa | 3.05 mm | - | 14 W/m² | - |
| 1778069626 | 17.22° C | 98% | 1012.1 hPa | 3.05 mm | - | 15 W/m² | - |
| 1778069323 | 17.22° C | 97% | 1012.4 hPa | 3.05 mm | - | 9 W/m² | - |
| 1778069020 | 17.22° C | 97% | 1012.6 hPa | 3.05 mm | - | 13 W/m² | - |
| 1778068717 | 17.22° C | 96% | 1012.3 hPa | 4.32 mm | - | 6 W/m² | - |
| 1778068416 | 17.78° C | 95% | 1012.1 hPa | 3.05 mm | - | 5 W/m² | - |
| 1778068114 | 17.78° C | 94% | 1012 hPa | 1.27 mm | - | 5 W/m² | - |
| 1778067811 | 17.78° C | 93% | 1012 hPa | 1.78 mm | - | 8 W/m² | - |
| 1778067509 | 17.78° C | 93% | 1011.9 hPa | 1.78 mm | - | 10 W/m² | - |
| 1778067207 | 17.78° C | 91% | 1011.7 hPa | 1.78 mm | - | 10 W/m² | - |
| 1778066903 | 18.33° C | 90% | 1011.6 hPa | 0 mm | - | 7 W/m² | - |
| 1778066600 | 18.33° C | 90% | 1011.2 hPa | 0 mm | - | 9 W/m² | - |
| 1778066298 | 18.33° C | 89% | 1011.1 hPa | 1.27 mm | - | 6 W/m² | - |
| 1778065996 | 18.33° C | 88% | 1011.2 hPa | 1.27 mm | - | 4 W/m² | - |
| 1778065693 | 18.33° C | 88% | 1011 hPa | 0 mm | - | 4 W/m² | - |
| 1778065390 | 18.89° C | 87% | 1011.3 hPa | 1.78 mm | - | 3 W/m² | - |
* Rain latest hour (hover to see other rain measurements)
** Current wind speed in m/s (hover to see current wind gust speed)